www.pogodaiklimat.ru

Архив погоды в Сковородино (Амурская область, Россия)

Время
(UTC), дата
15 9.06
18 9.06
21 9.06
00 10.06
03 10.06
06 10.06
09 10.06
12 10.06
15 10.06
18 10.06
21 10.06
00 11.06
03 11.06
06 11.06
09 11.06
12 11.06
15 11.06
18 11.06
21 11.06
00 12.06
03 12.06
06 12.06
09 12.06
12 12.06
15 12.06
18 12.06
21 12.06
00 13.06
03 13.06
06 13.06
09 13.06
12 13.06
15 13.06
18 13.06
21 13.06
00 14.06
03 14.06
06 14.06
09 14.06
12 14.06
15 14.06
21 14.06
03 15.06
09 15.06
Ветер
(напр.,м/с)
Видим. Явления Облачность Т
(С)
Тd
(С)
f
(%)
Тe
(С)
Тes
(С)
Комфортность P
(гПа)
Po
(гПа)
Тmin
(С)
Tmax
(С)
R
(мм)
R24
(мм)
S
(см)
С 2 4000 м дым 10/0
[Ac As]
+9.3 +4.8 73 +8 +8 1002.2 955.4
В 2 4000 м дым 10/0
[Ac As]
+6.3 +4.0 85 +4 +4 1003.1 955.7
С 2 4000 м дым 10/0
[Ac As]
+5.7 +4.3 91 +3 +3 1005.7 956.2
С 2 2000 м дым 8/0
[Ac trans Ci fib]
+15.6 +7.8 60 +16 +22 1001.8 956.2 +3.0
В 4 4000 м дым 6/6 600 м
[Cu med, cong]
+23.0 +2.8 27 +23 +27 комфорт 1000.2 955.7
В 4 4000 м дым 8/8 600 м
[Cb cap]
+23.6 +4.8 30 +23 +25 комфорт 999.1 954.8
В 2 4000 м дым 9/5 600 м
[Cb cap Ac lent]
+19.2 +7.0 45 +20 +21 1000.8 955.7
С 2 4000 м слаб. ливневой дождь {гроза} 10/10 600 м
[Cb cap]
+14.4 +11.2 81 +14 +14 1003.1 957.2 +24.3 0.9
штиль 0 4000 м дым {гроза, ливн. дождь} 10/10 600 м
[Cb cap]
+12.2 +11.6 96 +12 +12 1005.3 959.0
СВ 2 4000 м дым {гроза, ливн. дождь} 6/0
[Ac lent]
+9.3 +8.8 97 +7 +7 1008.4 959.4
В 2 200 м туман, небо видно 6/0
[Ac trans]
+8.6 +8.2 97 +7 +7 1007.6 960.6
СВ 2 10 км дым {мгла} 8/1 600 м
[Cu hum Ac trans]
+15.9 +8.7 62 +16 +20 1007.2 961.3 +7.5 3
З 2 10 км дым 4/4 600 м
[Cu med, cong]
+20.7 +8.1 44 +23 +32 комфорт 1005.3 960.3
С 2 20 км дым 5/5 600 м
[Cu med, cong]
+21.7 +8.7 43 +23 +30 комфорт 1004.1 959.2
штиль 0 10 км дым 1/1 600 м
[Cu med, cong]
+23.5 +7.0 35 +24 +29 комфорт 1003.8 959.2
В 2 50 км 5/3 600 м
[Cb cap Ac trans Ci fib]
+17.2 +10.5 65 +18 +18 1005.6 960.1 +23.5
С 2 10 км дым 3/0
[Ac cuf]
+8.1 +6.8 91 +6 +6 1008.2 961.0
С 2 10 км дым ясно +5.4 +4.9 97 +3 +3 1009.5 961.7
СВ 2 10 км дым ясно +4.7 +3.7 93 +2 +3 1010.2 962.4
ЮЗ 1 2000 м дым 8/3 600 м
[Cu med, cong Ac As]
+14.7 +8.2 65 +15 +19 1008.6 962.5 +3.8
Ю 1 2000 м дым 6/3 600 м
[Cu med, cong Ac cuf]
+23.0 +8.7 40 +24 +34 комфорт 1006.2 961.4
СЗ 2 2000 м дым 9/9 600 м
[Cb cap]
+26.5 +6.0 27 +26 +27 жарко 1003.7 959.4
З 2 4000 м в посл. час гроза {ливн. дождь} 9/8 600 м
[Cb cap Ac cuf]
+17.6 +12.3 71 +18 +19 1006.2 960.7
В 2 20 км {гроза, ливн. дождь} 10/6 600 м
[Cb cap Ac cast Ci ing]
+15.8 +11.3 75 +16 +16 1006.6 960.8 +26.8 5
СВ 3 20 км 10/6 600 м
[Cb cap Ac cast]
+9.7 +7.9 89 +7 +7 1007.9 961.0
В 2 20 км 10/9 600 м
[Cb cap Ac cuf]
+5.2 +5.2 100 +2 +2 1008.3 961.6
СВ 2 10 км 8/0
[Ac As]
+4.7 +3.8 94 +2 +2 1009.8 961.9
В 3 2000 м дым 3/0
[Ci fib]
+18.5 +9.6 56 +19 +26 1010.2 961.8 +3.5
В 4 4000 м дым 3/3 600 м
[Cu med, cong]
+22.4 +8.7 42 +24 +31 комфорт 1005.5 960.8
В 2 4000 м дым 8/8 600 м
[Cb cap]
+24.8 +5.4 29 +24 +27 комфорт 1003.5 959.1
Ю 3 4000 м в посл. час гроза {ливн. дождь} 8/5 600 м
[Cb cap Ac trans]
+17.3 +11.0 66 +17 +18 1006.0 960.5
С 2 4000 м дым {гроза, ливн. дождь} 8/3 600 м
[Cb cap Ac trans Ci fib]
+12.5 +9.3 81 +12 +12 1007.4 961.0 1
СВ 2 10 км дым 6/0
[Ac lent]
+7.0 +5.7 91 +5 +5 1008.8 961.4
СВ 1 500 м туман, небо видно {мгла} 6/0
[Ac trans]
+5.7 +4.8 94 +4 +4 1009.1 961.5
СВ 2 500 м туман, небо видно 3/0
[Ci fib]
+4.8 +3.9 94 +2 +3 1009.4 961.6
штиль 0 20 км {туман} 3/0
[Ac trans]
+16.5 +11.5 72 +16 +26 1006.8 961.1 +4.4
Ю 1 20 км 4/3 600 м
[Cu med, cong Ac trans]
+25.2 +6.9 31 +25 +37 комфорт 1003.7 959.3
СЗ 4 {14} 50 км 10/8 600 м
[Cb cap Ac und]
+22.3 +5.0 32 +23 +23 комфорт 1003.5 958.7
ЮЗ 1 20 км 8/3 600 м
[Sc diur, vesp Ac trans Ci ing]
+22.0 +6.8 37 +23 +25 комфорт 1003.6 958.8
СВ 2 20 км 10/3 600 м
[Cb cap Ac lent Ci fib]
+15.0 +9.7 71 +15 +15 1005.8 959.8 +26.0
штиль 0 20 км {ливн. дождь} 3/0
[Ac trans]
+11.8 +10.2 90 +11 +11 1005.5 959.0
СВ 2 500 м туман, небо видно 8/0
[Ci fib]
+5.3 +4.4 94 +3 +3 1006.9 959.2
З 3 20 км 4/3 600 м
[Cu med, cong Ac trans]
+23.6 +9.2 40 +24 +33 комфорт 1001.2 956.8
ЮЗ 3 20 км 8/3 600 м
[Cu med, cong Ac und]
+26.2 +6.2 28 +26 +27 жарко 996.4 952.5
Местоположение метеостанции Сковородино (Амурская область, Россия): широта 54.00 долгота 123.90 высота над уровнем моря 397 м.
В архиве по умолчанию представлена погода в Сковородино за последнюю неделю. Архивные данные за месяц целиком и за предыдущие месяцы, начиная с января 2011 года, Вы можете получить, выбрав интересующий диапазон дат из раскрывающегося списка и нажав кнопку "Найти!".
*Определитесь, кто Вы:
Внимание! Время в таблицах - всемирное. Для получения местного времени необходимо прибавить поправку, которая равна 9 ч.
Некоторые строки с данными для отдельных станций могут быть выделены курсивом. Это означает, что фактические данные отсутствуют по различным причинам, а приведенные значения являются расчетными модельными данными для данного пункта наблюдений.
Смотрите также архив погоды в соседних городах и на ближайших метеорологических станциях:
Партнеры нашего сайта:      
Пояснения к столбцам:
  • Ветер - указаны скорость ветра в м/с - средняя за 10 мин, порывы в срок и между сроками (в фигурных скобках) и направление, откуда дует ветер: С - северный,
  • СВ - северо-восточный, В - восточный, ЮВ - юго-восточный, Ю - южный, ЮЗ - юго-западный, З - западный, СЗ - северо-западный.
  • Видимость - горизонтальная дальность видимости в метрах или километрах. При видимости от 1 до 10 км при отсутствии осадков обычно наблюдается дымка, при ухудшении видимости до 1 км и менее - туман. В сухую погоду видимость может ухудшаться дымом, пылью или мглою.
  • Явления - указаны атмосферные явления, наблюдавшиеся в срок или в последний час перед сроком; фигурными скобками обозначены явления, наблюдавшиеся между сроками (за 1-3 часа до срока); квадратными скобками обозначены град или гололедные отложения с указанием их диаметра в мм.
  • Облачность - указаны через наклонную черту общая и нижняя облачность в баллах и высота нижней границы облаков в метрах; квадратными скобками обозначены формы облаков: Ci - перистые, Cs - перисто-слоистые, Cc - перисто-кучевые, Ac - высококучевые, As - высокослоистые, Sc - слоисто-кучевые, Ns - слоисто-дождевые, Cu - кучевые, Cb - кучево-дождевые. Подробнее классификацию облаков см. в Атласе облаков (PDF).
  • T - Температура воздуха - температура, измеренная на высоте 2 м над землей.
  • Td - Температура точки росы - температура, при понижении до которой содержащийся в воздухе водяной пар достигнет насыщения.
  • f - Относительная влажность воздуха - влажноcть воздуха, измеренная на высоте 2 м над землей.
  • Te - Эффективная температура - температура, которую ощущает одетый по сезону человек в тени. Характеристика душности погоды. При расчете учитывается влияние влажности воздуха и скорости ветра на теплоощущения человека.
  • Tes - Эффективная температура на солнце - температура, которую ощущает человек, с поправкой на солнечный нагрев. Характеристика знойности погоды. Зависит от высоты солнца над горизонтом, облачности и скорости ветра. Ночью, в пасмурную погоду, а также при ветре 12 м/с и более поправка равна нулю.
  • P - Атмосферное давление - приведенное к уровню моря атмосферное давление.
  • Po - Атмосферное давление - измеренное на уровне метеостанции атмосферное давление.
  • Tmin - Минимальная температура - минимум температуры воздуха на высоте 2 м над землей.
  • Tmax - Максимальная температура - максимум температуры воздуха на высоте 2 м над землей.
  • R - Количество осадков - Количество выпавших осадков за период времени, мм. При наведении курсора мыши на число - период времени, за который выпало указанное количество осадков.
  • R24 - Количество осадков - Количество выпавших осадков за 24 часа, мм.
  • S - Снежный покров - Высота снежного покрова, см. При наведении курсора мыши на число - состояние снежного покрова и степень покрытия местности в баллах.